Time,TemperatureF,DewpointF,PressureIn,WindDirection,WindDirectionDegrees,WindSpeedMPH,WindSpeedGustMPH,Humidity,HourlyPrecipIn,Conditions,Clouds,dailyrainin,SolarRadiationWatts/m^2,SoftwareType,DateUTC
2013-08-06 00:02:00,77.9,75.0,29.92,SSE,161,2.0,2.9,91,0.00,,,0.00,0.0,meteobridge,2013-08-06 05:02:00,
2013-08-06 00:07:00,77.7,74.8,29.92,SSE,161,2.0,2.0,91,0.00,,,0.00,0.0,meteobridge,2013-08-06 05:07:00,
2013-08-06 00:12:00,77.9,75.4,29.92,SSE,153,2.0,2.9,92,0.00,,,0.00,0.0,meteobridge,2013-08-06 05:12:00,
2013-08-06 00:17:00,78.1,75.6,29.92,SE,144,2.0,4.0,92,0.00,,,0.00,0.0,meteobridge,2013-08-06 05:17:00,
2013-08-06 00:22:00,78.1,75.6,29.92,SE,142,0.9,2.9,92,0.00,,,0.00,0.0,meteobridge,2013-08-06 05:22:00,
2013-08-06 00:27:00,77.7,74.8,29.92,SE,143,2.0,2.9,91,0.00,,,0.00,0.0,meteobridge,2013-08-06 05:27:00,
2013-08-06 00:32:00,77.7,75.2,29.92,SSE,163,2.0,4.0,92,0.00,,,0.00,0.0,meteobridge,2013-08-06 05:32:00,
2013-08-06 00:37:00,77.9,75.4,29.92,SSE,153,4.0,4.0,92,0.00,,,0.00,0.0,meteobridge,2013-08-06 05:37:00,
2013-08-06 00:42:00,77.9,75.4,29.92,SSE,156,2.0,4.0,92,0.00,,,0.00,0.0,meteobridge,2013-08-06 05:42:00,
2013-08-06 00:47:00,78.1,75.9,29.92,South,180,2.9,4.9,93,0.00,,,0.00,0.0,meteobridge,2013-08-06 05:47:00,
2013-08-06 00:52:00,78.3,76.1,29.92,SSE,167,2.0,4.9,93,0.00,,,0.00,0.0,meteobridge,2013-08-06 05:52:00,
2013-08-06 00:57:00,78.3,76.1,29.92,SSE,161,2.0,4.0,93,0.00,,,0.00,0.0,meteobridge,2013-08-06 05:57:00,
2013-08-06 01:02:00,78.3,76.1,29.92,SSE,151,2.0,2.9,93,0.00,,,0.00,0.0,meteobridge,2013-08-06 06:02:00,
2013-08-06 01:07:00,78.3,76.1,29.92,SSE,157,2.9,4.0,93,0.00,,,0.00,0.0,meteobridge,2013-08-06 06:07:00,
2013-08-06 01:12:00,78.1,75.9,29.92,SSE,163,2.9,4.0,93,0.00,,,0.00,0.0,meteobridge,2013-08-06 06:12:00,
2013-08-06 01:18:00,78.3,76.1,29.91,SSE,165,4.9,6.0,93,0.00,,,0.00,0.0,meteobridge,2013-08-06 06:18:00,
2013-08-06 01:23:00,78.4,76.3,29.91,SSE,156,4.0,4.9,93,0.00,,,0.00,0.0,meteobridge,2013-08-06 06:23:00,
2013-08-06 01:28:00,78.4,76.3,29.91,SSE,162,4.0,4.9,93,0.00,,,0.00,0.0,meteobridge,2013-08-06 06:28:00,
2013-08-06 01:33:00,78.4,76.3,29.91,South,169,4.0,6.0,93,0.00,,,0.00,0.0,meteobridge,2013-08-06 06:33:00,
2013-08-06 01:38:00,78.6,76.5,29.91,SSE,161,4.9,6.0,93,0.00,,,0.00,0.0,meteobridge,2013-08-06 06:38:00,
2013-08-06 01:43:00,78.6,76.5,29.91,SE,144,4.9,6.0,93,0.00,,,0.00,0.0,meteobridge,2013-08-06 06:43:00,
2013-08-06 01:48:00,78.8,77.0,29.90,SSE,163,4.0,6.9,94,0.00,,,0.00,0.0,meteobridge,2013-08-06 06:48:00,
2013-08-06 01:53:00,79.0,77.2,29.90,SSE,160,4.0,6.9,94,0.00,,,0.00,0.0,meteobridge,2013-08-06 06:53:00,
2013-08-06 01:58:00,79.2,77.4,29.90,South,188,8.1,8.9,94,0.00,,,0.00,0.0,meteobridge,2013-08-06 06:58:00,
2013-08-06 02:03:00,79.5,77.7,29.89,SSE,165,6.0,8.9,94,0.00,,,0.00,0.0,meteobridge,2013-08-06 07:03:00,
2013-08-06 02:08:00,79.7,77.5,29.89,South,180,4.9,8.9,93,0.00,,,0.00,0.0,meteobridge,2013-08-06 07:08:00,
2013-08-06 02:13:00,79.9,77.7,29.89,SSW,196,4.9,10.1,93,0.00,,,0.00,0.0,meteobridge,2013-08-06 07:13:00,
2013-08-06 02:18:00,79.9,77.7,29.89,South,169,6.0,8.9,93,0.00,,,0.00,0.0,meteobridge,2013-08-06 07:18:00,
2013-08-06 02:23:00,80.1,77.9,29.89,SSE,165,8.1,8.1,93,0.00,,,0.00,0.0,meteobridge,2013-08-06 07:23:00,
2013-08-06 02:28:00,80.1,77.5,29.89,South,175,6.9,8.9,92,0.00,,,0.00,0.0,meteobridge,2013-08-06 07:28:00,
2013-08-06 02:33:00,80.2,77.7,29.89,South,185,6.0,8.1,92,0.00,,,0.00,0.0,meteobridge,2013-08-06 07:33:00,
2013-08-06 02:38:00,80.1,77.5,29.89,SSE,168,4.9,8.1,92,0.00,,,0.00,0.0,meteobridge,2013-08-06 07:38:00,
2013-08-06 02:43:00,80.1,77.5,29.89,South,179,4.9,8.9,92,0.00,,,0.00,0.0,meteobridge,2013-08-06 07:43:00,
2013-08-06 02:48:00,80.1,77.5,29.89,South,182,6.0,8.1,92,0.00,,,0.00,0.0,meteobridge,2013-08-06 07:48:00,
2013-08-06 02:54:00,80.1,77.5,29.89,SSE,165,6.9,6.9,92,0.00,,,0.00,0.0,meteobridge,2013-08-06 07:54:00,
2013-08-06 02:59:00,80.1,77.5,29.89,South,184,6.0,6.9,92,0.00,,,0.00,0.0,meteobridge,2013-08-06 07:59:00,
2013-08-06 03:04:00,79.9,77.4,29.89,South,171,4.9,6.0,92,0.00,,,0.00,0.0,meteobridge,2013-08-06 08:04:00,
2013-08-06 03:09:00,79.9,77.7,29.89,South,182,4.0,6.0,93,0.00,,,0.00,0.0,meteobridge,2013-08-06 08:09:00,
2013-08-06 03:14:00,79.7,77.5,29.89,SSE,167,2.9,4.9,93,0.00,,,0.00,0.0,meteobridge,2013-08-06 08:14:00,
2013-08-06 03:19:00,79.5,77.4,29.89,South,170,2.9,4.9,93,0.00,,,0.00,0.0,meteobridge,2013-08-06 08:19:00,
2013-08-06 03:24:00,79.5,77.4,29.89,South,173,2.9,4.9,93,0.00,,,0.00,0.0,meteobridge,2013-08-06 08:24:00,
2013-08-06 03:29:00,79.3,77.2,29.89,South,177,2.0,6.0,93,0.00,,,0.00,0.0,meteobridge,2013-08-06 08:29:00,
2013-08-06 03:34:00,79.3,77.2,29.88,South,171,4.0,4.0,93,0.00,,,0.00,0.0,meteobridge,2013-08-06 08:34:00,
2013-08-06 03:39:00,79.2,77.0,29.88,South,169,2.9,4.9,93,0.00,,,0.00,0.0,meteobridge,2013-08-06 08:39:00,
2013-08-06 03:44:00,79.3,77.5,29.88,South,184,6.0,6.0,94,0.00,,,0.00,0.0,meteobridge,2013-08-06 08:44:00,
2013-08-06 03:49:00,79.3,77.5,29.88,SSE,167,6.0,8.1,94,0.00,,,0.00,0.0,meteobridge,2013-08-06 08:49:00,
2013-08-06 03:54:00,79.3,77.5,29.88,SSE,162,4.0,6.9,94,0.00,,,0.00,0.0,meteobridge,2013-08-06 08:54:00,
2013-08-06 03:59:00,79.3,77.2,29.88,South,171,4.0,8.1,93,0.00,,,0.00,0.0,meteobridge,2013-08-06 08:59:00,
2013-08-06 04:04:00,79.3,77.2,29.88,South,174,6.0,10.1,93,0.00,,,0.00,0.0,meteobridge,2013-08-06 09:04:00,
2013-08-06 04:09:00,79.5,77.4,29.88,South,184,4.9,8.1,93,0.00,,,0.00,0.0,meteobridge,2013-08-06 09:09:00,
2013-08-06 04:14:00,79.5,77.4,29.88,SSE,164,6.0,8.1,93,0.00,,,0.00,0.0,meteobridge,2013-08-06 09:14:00,
2013-08-06 04:19:00,79.5,77.7,29.88,South,191,6.9,10.1,94,0.00,,,0.00,0.0,meteobridge,2013-08-06 09:19:00,
2013-08-06 04:24:00,79.5,77.7,29.88,SSE,167,4.0,8.1,94,0.00,,,0.00,0.0,meteobridge,2013-08-06 09:24:00,
2013-08-06 04:29:00,79.5,77.4,29.88,South,174,4.9,6.0,93,0.00,,,0.00,0.0,meteobridge,2013-08-06 09:29:00,
2013-08-06 04:34:00,79.7,77.9,29.89,South,189,6.0,10.1,94,0.00,,,0.00,0.0,meteobridge,2013-08-06 09:34:00,
2013-08-06 04:40:00,79.9,77.7,29.89,South,173,4.9,8.1,93,0.00,,,0.00,0.0,meteobridge,2013-08-06 09:40:00,
2013-08-06 04:45:00,79.9,77.7,29.88,South,174,6.0,8.1,93,0.00,,,0.00,0.0,meteobridge,2013-08-06 09:45:00,
2013-08-06 04:50:00,80.1,77.9,29.88,South,186,8.9,10.1,93,0.00,,,0.00,0.0,meteobridge,2013-08-06 09:50:00,
2013-08-06 04:55:00,80.1,77.9,29.88,South,172,6.9,10.1,93,0.00,,,0.00,0.0,meteobridge,2013-08-06 09:55:00,
2013-08-06 05:00:00,80.1,77.9,29.89,South,171,4.9,8.1,93,0.00,,,0.00,0.0,meteobridge,2013-08-06 10:00:00,
2013-08-06 05:05:00,80.1,77.9,29.89,South,188,8.1,11.0,93,0.00,,,0.00,0.0,meteobridge,2013-08-06 10:05:00,
2013-08-06 05:10:00,80.1,77.9,29.89,South,180,6.9,8.9,93,0.00,,,0.00,0.0,meteobridge,2013-08-06 10:10:00,
2013-08-06 05:15:00,80.1,77.9,29.89,SSE,164,4.9,8.1,93,0.00,,,0.00,0.0,meteobridge,2013-08-06 10:15:00,
2013-08-06 05:20:00,80.1,77.9,29.89,South,175,4.9,6.9,93,0.00,,,0.00,0.0,meteobridge,2013-08-06 10:20:00,
2013-08-06 05:25:00,80.1,77.9,29.89,South,178,4.9,8.9,93,0.00,,,0.00,0.0,meteobridge,2013-08-06 10:25:00,
2013-08-06 05:30:00,80.1,77.9,29.89,SSW,194,4.0,6.0,93,0.00,,,0.00,0.0,meteobridge,2013-08-06 10:30:00,
2013-08-06 05:35:00,80.1,77.9,29.89,South,185,4.9,6.9,93,0.00,,,0.00,0.0,meteobridge,2013-08-06 10:35:00,
2013-08-06 05:40:00,80.1,77.9,29.89,SSW,192,6.0,6.9,93,0.00,,,0.00,0.0,meteobridge,2013-08-06 10:40:00,
2013-08-06 05:45:00,80.2,78.1,29.90,South,188,6.0,6.9,93,0.00,,,0.00,0.0,meteobridge,2013-08-06 10:45:00,
2013-08-06 05:50:00,80.2,78.1,29.90,South,176,4.9,6.9,93,0.00,,,0.00,0.0,meteobridge,2013-08-06 10:50:00,
2013-08-06 05:55:00,80.4,78.3,29.90,SSW,194,4.9,6.9,93,0.00,,,0.00,0.0,meteobridge,2013-08-06 10:55:00,
2013-08-06 06:00:00,80.4,78.3,29.89,South,186,4.0,6.9,93,0.00,,,0.00,0.0,meteobridge,2013-08-06 11:00:00,
2013-08-06 06:05:00,80.4,78.3,29.89,South,182,6.0,6.9,93,0.00,,,0.00,0.0,meteobridge,2013-08-06 11:05:00,
2013-08-06 06:10:00,80.4,78.3,29.89,SSW,198,6.0,6.9,93,0.00,,,0.00,0.0,meteobridge,2013-08-06 11:10:00,
2013-08-06 06:15:00,80.6,78.4,29.89,South,179,4.0,4.9,93,0.00,,,0.00,0.0,meteobridge,2013-08-06 11:15:00,
2013-08-06 06:20:00,80.4,78.3,29.89,South,190,2.9,4.9,93,0.00,,,0.00,0.0,meteobridge,2013-08-06 11:20:00,
2013-08-06 06:25:00,80.4,78.3,29.89,South,181,2.0,4.9,93,0.00,,,0.00,0.0,meteobridge,2013-08-06 11:25:00,
2013-08-06 06:30:00,80.2,78.1,29.90,South,186,2.0,4.9,93,0.00,,,0.00,0.0,meteobridge,2013-08-06 11:30:00,
2013-08-06 06:36:00,80.1,77.9,29.90,South,183,0.9,2.9,93,0.00,,,0.00,0.0,meteobridge,2013-08-06 11:36:00,
2013-08-06 06:41:00,79.7,77.5,29.90,South,183,2.0,2.0,93,0.00,,,0.00,0.0,meteobridge,2013-08-06 11:41:00,
2013-08-06 06:46:00,79.5,77.4,29.90,SSE,166,0.0,2.9,93,0.00,,,0.00,0.0,meteobridge,2013-08-06 11:46:00,
2013-08-06 06:51:00,79.5,77.4,29.90,SSE,166,0.0,2.0,93,0.00,,,0.00,5.0,meteobridge,2013-08-06 11:51:00,
2013-08-06 06:56:00,79.3,77.2,29.90,SSE,166,0.0,0.0,93,0.00,,,0.00,7.0,meteobridge,2013-08-06 11:56:00,
2013-08-06 07:01:00,79.2,77.4,29.90,SSE,165,0.9,2.9,94,0.00,,,0.00,12.0,meteobridge,2013-08-06 12:01:00,
2013-08-06 07:06:00,79.2,77.4,29.90,SSW,200,2.0,2.9,94,0.00,,,0.00,16.0,meteobridge,2013-08-06 12:06:00,
2013-08-06 07:11:00,79.2,77.4,29.90,South,189,2.0,2.0,94,0.00,,,0.00,21.0,meteobridge,2013-08-06 12:11:00,
2013-08-06 07:16:00,79.2,77.4,29.89,South,178,2.0,4.0,94,0.00,,,0.00,30.0,meteobridge,2013-08-06 12:16:00,
2013-08-06 07:21:00,79.2,77.4,29.89,South,175,2.9,4.0,94,0.00,,,0.00,33.0,meteobridge,2013-08-06 12:21:00,
2013-08-06 07:26:00,79.3,77.5,29.89,South,179,2.0,4.0,94,0.00,,,0.00,35.0,meteobridge,2013-08-06 12:26:00,
2013-08-06 07:31:00,79.5,77.7,29.90,South,169,4.0,4.0,94,0.00,,,0.00,40.0,meteobridge,2013-08-06 12:31:00,
2013-08-06 07:36:00,79.9,78.1,29.90,South,173,4.0,4.0,94,0.00,,,0.00,47.0,meteobridge,2013-08-06 12:36:00,
2013-08-06 07:41:00,80.1,78.3,29.90,South,187,2.0,4.9,94,0.00,,,0.00,88.0,meteobridge,2013-08-06 12:41:00,
2013-08-06 07:46:00,80.4,78.6,29.90,South,181,4.0,4.9,94,0.00,,,0.00,107.0,meteobridge,2013-08-06 12:46:00,
2013-08-06 07:51:00,81.0,79.0,29.90,South,171,4.0,6.9,94,0.00,,,0.00,144.0,meteobridge,2013-08-06 12:51:00,
2013-08-06 07:56:00,81.3,79.2,29.90,South,170,6.0,8.1,93,0.00,,,0.00,162.0,meteobridge,2013-08-06 12:56:00,
2013-08-06 08:01:00,81.9,79.3,29.90,SSW,192,4.9,11.0,92,0.00,,,0.00,171.0,meteobridge,2013-08-06 13:01:00,
2013-08-06 08:06:00,82.2,79.3,29.90,SSW,205,6.0,10.1,91,0.00,,,0.00,197.0,meteobridge,2013-08-06 13:06:00,
2013-08-06 08:11:00,82.6,79.3,29.90,South,188,6.0,11.0,90,0.00,,,0.00,214.0,meteobridge,2013-08-06 13:11:00,
2013-08-06 08:17:00,82.8,79.2,29.91,South,185,10.1,12.1,89,0.00,,,0.00,218.0,meteobridge,2013-08-06 13:17:00,
2013-08-06 08:22:00,82.9,79.0,29.91,SSE,162,13.0,13.0,88,0.00,,,0.00,251.0,meteobridge,2013-08-06 13:22:00,
2013-08-06 08:27:00,83.5,79.2,29.91,South,188,10.1,11.0,87,0.00,,,0.00,283.0,meteobridge,2013-08-06 13:27:00,
2013-08-06 08:32:00,83.8,79.2,29.91,South,182,11.0,13.0,86,0.00,,,0.00,385.0,meteobridge,2013-08-06 13:32:00,
2013-08-06 08:37:00,84.4,79.7,29.91,SSE,152,6.0,11.0,86,0.00,,,0.00,388.0,meteobridge,2013-08-06 13:37:00,
2013-08-06 08:42:00,84.7,79.3,29.91,South,175,6.9,16.1,84,0.00,,,0.00,413.0,meteobridge,2013-08-06 13:42:00,
2013-08-06 08:47:00,85.1,79.7,29.92,South,190,13.0,14.1,84,0.00,,,0.00,367.0,meteobridge,2013-08-06 13:47:00,
2013-08-06 08:52:00,84.9,79.2,29.92,South,182,8.1,16.1,83,0.00,,,0.00,181.0,meteobridge,2013-08-06 13:52:00,
2013-08-06 08:57:00,84.6,78.8,29.92,SSW,200,8.1,17.0,83,0.00,,,0.00,197.0,meteobridge,2013-08-06 13:57:00,
2013-08-06 09:02:00,84.7,79.0,29.92,South,189,12.1,16.1,83,0.00,,,0.00,438.0,meteobridge,2013-08-06 14:02:00,
2013-08-06 09:07:00,84.7,78.6,29.92,South,182,8.9,17.9,82,0.00,,,0.00,127.0,meteobridge,2013-08-06 14:07:00,
2013-08-06 09:12:00,85.3,78.8,29.92,SSW,200,8.9,17.0,81,0.00,,,0.00,461.0,meteobridge,2013-08-06 14:12:00,
2013-08-06 09:17:00,85.6,78.8,29.92,South,179,13.0,15.0,80,0.00,,,0.00,475.0,meteobridge,2013-08-06 14:17:00,
2013-08-06 09:22:00,85.6,78.4,29.92,SSW,194,12.1,17.0,79,0.00,,,0.00,209.0,meteobridge,2013-08-06 14:22:00,
2013-08-06 09:27:00,85.6,78.8,29.92,SSW,207,6.9,15.0,80,0.00,,,0.00,209.0,meteobridge,2013-08-06 14:27:00,
2013-08-06 09:32:00,85.8,79.0,29.92,South,184,11.0,14.1,80,0.00,,,0.00,589.0,meteobridge,2013-08-06 14:32:00,
2013-08-06 09:37:00,86.5,78.8,29.92,SSW,200,17.0,17.0,78,0.00,,,0.00,526.0,meteobridge,2013-08-06 14:37:00,
2013-08-06 09:42:00,86.5,78.4,29.92,SSW,210,6.9,14.1,77,0.00,,,0.00,587.0,meteobridge,2013-08-06 14:42:00,
2013-08-06 09:47:00,86.5,78.8,29.92,SSW,200,14.1,15.0,78,0.00,,,0.00,548.0,meteobridge,2013-08-06 14:47:00,
2013-08-06 09:52:00,87.4,79.0,29.92,SSW,199,8.9,19.0,76,0.00,,,0.00,643.0,meteobridge,2013-08-06 14:52:00,
2013-08-06 09:57:00,87.4,78.6,29.92,South,188,10.1,17.9,75,0.00,,,0.00,636.0,meteobridge,2013-08-06 14:57:00,
2013-08-06 10:02:00,87.3,79.2,29.92,SW,219,10.1,15.0,77,0.00,,,0.00,615.0,meteobridge,2013-08-06 15:02:00,
2013-08-06 10:07:00,88.0,78.6,29.92,South,181,15.0,16.1,74,0.00,,,0.00,708.0,meteobridge,2013-08-06 15:07:00,
2013-08-06 10:12:00,87.4,77.7,29.92,South,190,11.0,17.9,73,0.00,,,0.00,554.0,meteobridge,2013-08-06 15:12:00,
2013-08-06 10:17:00,87.6,78.3,29.92,SSW,208,14.1,16.1,74,0.00,,,0.00,230.0,meteobridge,2013-08-06 15:17:00,
2013-08-06 10:23:00,87.4,79.3,29.92,South,186,11.0,13.0,77,0.00,,,0.00,250.0,meteobridge,2013-08-06 15:23:00,
2013-08-06 10:28:00,88.7,78.4,29.92,SSW,192,11.0,17.9,72,0.00,,,0.00,735.0,meteobridge,2013-08-06 15:28:00,
2013-08-06 10:33:00,88.3,79.0,29.93,SSW,198,8.1,15.0,74,0.00,,,0.00,735.0,meteobridge,2013-08-06 15:33:00,
2013-08-06 10:38:00,88.5,78.8,29.93,SSW,202,12.1,17.0,73,0.00,,,0.00,752.0,meteobridge,2013-08-06 15:38:00,
2013-08-06 10:43:00,89.2,79.0,29.93,SSW,194,11.0,17.9,72,0.00,,,0.00,786.0,meteobridge,2013-08-06 15:43:00,
2013-08-06 10:48:00,89.2,78.1,29.93,SSW,205,8.1,16.1,70,0.00,,,0.00,789.0,meteobridge,2013-08-06 15:48:00,
2013-08-06 10:53:00,89.2,78.6,29.93,South,186,11.0,15.0,71,0.00,,,0.00,784.0,meteobridge,2013-08-06 15:53:00,
2013-08-06 10:58:00,89.8,78.6,29.93,SSE,158,15.0,17.0,70,0.00,,,0.00,837.0,meteobridge,2013-08-06 15:58:00,
2013-08-06 11:03:00,89.6,77.5,29.94,South,186,15.0,17.9,68,0.00,,,0.00,780.0,meteobridge,2013-08-06 16:03:00,
2013-08-06 11:08:00,90.0,78.4,29.94,SSW,205,17.0,17.9,69,0.00,,,0.00,773.0,meteobridge,2013-08-06 16:08:00,
2013-08-06 11:13:00,90.1,78.6,29.94,South,183,12.1,16.1,69,0.00,,,0.00,798.0,meteobridge,2013-08-06 16:13:00,
2013-08-06 11:18:00,90.1,78.6,29.94,SW,214,13.0,14.1,69,0.00,,,0.00,793.0,meteobridge,2013-08-06 16:18:00,
2013-08-06 11:23:00,90.7,78.6,29.94,South,190,12.1,13.0,68,0.00,,,0.00,842.0,meteobridge,2013-08-06 16:23:00,
2013-08-06 11:28:00,91.0,78.6,29.94,SSW,202,6.9,14.1,67,0.00,,,0.00,802.0,meteobridge,2013-08-06 16:28:00,
2013-08-06 11:33:00,91.2,78.8,29.94,SSW,196,12.1,13.0,67,0.00,,,0.00,823.0,meteobridge,2013-08-06 16:33:00,
2013-08-06 11:38:00,91.2,77.4,29.94,South,186,8.9,17.0,64,0.00,,,0.00,821.0,meteobridge,2013-08-06 16:38:00,
2013-08-06 11:43:00,91.6,78.1,29.94,South,191,12.1,16.1,65,0.00,,,0.00,833.0,meteobridge,2013-08-06 16:43:00,
2013-08-06 11:48:00,91.2,77.4,29.93,SW,219,13.0,17.0,64,0.00,,,0.00,840.0,meteobridge,2013-08-06 16:48:00,
2013-08-06 11:53:00,91.6,78.1,29.93,South,182,11.0,17.9,65,0.00,,,0.00,854.0,meteobridge,2013-08-06 16:53:00,
2013-08-06 11:58:00,91.4,77.9,29.93,SSE,161,8.9,16.1,65,0.00,,,0.00,492.0,meteobridge,2013-08-06 16:58:00,
2013-08-06 12:03:00,91.6,77.2,29.93,SSE,167,14.1,19.0,63,0.00,,,0.00,881.0,meteobridge,2013-08-06 17:03:00,
2013-08-06 12:08:00,91.9,77.5,29.93,South,178,8.9,17.9,63,0.00,,,0.00,867.0,meteobridge,2013-08-06 17:08:00,
2013-08-06 12:13:00,91.9,77.5,29.93,SSW,196,10.1,16.1,63,0.00,,,0.00,896.0,meteobridge,2013-08-06 17:13:00,
2013-08-06 12:18:00,91.2,78.8,29.94,South,190,12.1,17.0,67,0.00,,,0.00,921.0,meteobridge,2013-08-06 17:18:00,
2013-08-06 12:24:00,92.3,78.3,29.94,South,180,11.0,17.9,64,0.00,,,0.00,896.0,meteobridge,2013-08-06 17:24:00,
2013-08-06 12:28:00,92.3,78.3,29.94,SSW,209,14.1,15.0,64,0.00,,,0.00,909.0,meteobridge,2013-08-06 17:28:00,
2013-08-06 12:33:00,92.7,77.2,29.93,South,173,14.1,17.0,61,0.00,,,0.00,967.0,meteobridge,2013-08-06 17:33:00,
2013-08-06 12:38:00,92.5,77.5,29.93,South,173,8.1,17.0,62,0.00,,,0.00,907.0,meteobridge,2013-08-06 17:38:00,
2013-08-06 12:43:00,92.3,77.4,29.93,SSE,167,15.0,17.0,62,0.00,,,0.00,940.0,meteobridge,2013-08-06 17:43:00,
2013-08-06 12:48:00,92.7,76.3,29.93,South,188,15.0,17.9,59,0.00,,,0.00,905.0,meteobridge,2013-08-06 17:48:00,
2013-08-06 12:53:00,92.7,77.2,29.93,South,180,12.1,17.0,61,0.00,,,0.00,921.0,meteobridge,2013-08-06 17:53:00,
2013-08-06 12:58:00,92.8,76.8,29.93,South,189,14.1,17.0,60,0.00,,,0.00,923.0,meteobridge,2013-08-06 17:58:00,
2013-08-06 13:04:00,93.0,77.5,29.92,SSW,193,11.0,17.0,61,0.00,,,0.00,923.0,meteobridge,2013-08-06 18:04:00,
2013-08-06 13:09:00,92.8,75.9,29.92,SSW,211,15.0,19.0,58,0.00,,,0.00,930.0,meteobridge,2013-08-06 18:09:00,
2013-08-06 13:13:00,92.8,77.4,29.92,SW,215,11.0,17.0,61,0.00,,,0.00,926.0,meteobridge,2013-08-06 18:13:00,
2013-08-06 13:18:00,92.1,75.7,29.92,SSW,192,12.1,21.0,59,0.00,,,0.00,925.0,meteobridge,2013-08-06 18:18:00,
2013-08-06 13:24:00,93.0,76.1,29.92,South,182,14.1,21.0,58,0.00,,,0.00,919.0,meteobridge,2013-08-06 18:24:00,
2013-08-06 13:29:00,93.9,76.8,29.92,SSW,211,8.1,21.0,58,0.00,,,0.00,923.0,meteobridge,2013-08-06 18:29:00,
2013-08-06 13:34:00,93.4,75.9,29.92,SSW,203,15.0,19.0,57,0.00,,,0.00,921.0,meteobridge,2013-08-06 18:34:00,
2013-08-06 13:39:00,93.0,76.6,29.92,SSW,213,8.1,16.1,59,0.00,,,0.00,928.0,meteobridge,2013-08-06 18:39:00,
2013-08-06 13:44:00,93.4,77.4,29.92,SSW,204,6.9,19.0,60,0.00,,,0.00,916.0,meteobridge,2013-08-06 18:44:00,
2013-08-06 13:49:00,93.4,76.5,29.91,South,182,13.0,17.9,58,0.00,,,0.00,928.0,meteobridge,2013-08-06 18:49:00,
2013-08-06 13:54:00,93.2,77.2,29.91,South,188,17.0,21.9,60,0.00,,,0.00,921.0,meteobridge,2013-08-06 18:54:00,
2013-08-06 13:59:00,92.8,77.4,29.91,SSE,155,13.0,16.1,61,0.00,,,0.00,914.0,meteobridge,2013-08-06 18:59:00,
2013-08-06 14:04:00,93.0,77.0,29.91,South,184,8.1,14.1,60,0.00,,,0.00,914.0,meteobridge,2013-08-06 19:04:00,
2013-08-06 14:09:00,93.2,76.3,29.91,SSW,205,8.1,19.0,58,0.00,,,0.00,907.0,meteobridge,2013-08-06 19:09:00,
2013-08-06 14:14:00,93.6,76.6,29.91,SSW,194,12.1,19.9,58,0.00,,,0.00,905.0,meteobridge,2013-08-06 19:14:00,
2013-08-06 14:19:00,93.4,77.4,29.90,South,178,14.1,19.0,60,0.00,,,0.00,900.0,meteobridge,2013-08-06 19:19:00,
2013-08-06 14:24:00,93.2,76.6,29.90,South,188,14.1,16.1,59,0.00,,,0.00,902.0,meteobridge,2013-08-06 19:24:00,
2013-08-06 14:29:00,93.4,76.5,29.90,South,185,12.1,17.0,58,0.00,,,0.00,888.0,meteobridge,2013-08-06 19:29:00,
2013-08-06 14:34:00,93.0,77.0,29.90,South,175,13.0,17.9,60,0.00,,,0.00,875.0,meteobridge,2013-08-06 19:34:00,
2013-08-06 14:39:00,93.0,77.5,29.90,South,190,8.1,15.0,61,0.00,,,0.00,879.0,meteobridge,2013-08-06 19:39:00,
2013-08-06 14:44:00,93.4,76.8,29.90,SSW,194,12.1,15.0,59,0.00,,,0.00,877.0,meteobridge,2013-08-06 19:44:00,
2013-08-06 14:49:00,93.4,76.5,29.89,South,185,13.0,19.9,58,0.00,,,0.00,863.0,meteobridge,2013-08-06 19:49:00,
2013-08-06 14:54:00,93.4,78.4,29.89,SSW,198,17.0,17.0,62,0.00,,,0.00,860.0,meteobridge,2013-08-06 19:54:00,
2013-08-06 14:59:00,93.7,77.7,29.89,South,187,12.1,12.1,60,0.00,,,0.00,851.0,meteobridge,2013-08-06 19:59:00,
2013-08-06 15:04:00,94.6,77.0,29.89,South,182,8.1,12.1,57,0.00,,,0.00,838.0,meteobridge,2013-08-06 20:04:00,
2013-08-06 15:09:00,94.1,77.0,29.89,SSW,205,8.9,17.0,58,0.00,,,0.00,826.0,meteobridge,2013-08-06 20:09:00,
2013-08-06 15:14:00,93.9,76.8,29.89,SSE,168,6.9,15.0,58,0.00,,,0.00,826.0,meteobridge,2013-08-06 20:14:00,
2013-08-06 15:19:00,94.5,77.4,29.89,South,181,11.0,17.0,58,0.00,,,0.00,810.0,meteobridge,2013-08-06 20:19:00,
2013-08-06 15:24:00,94.6,77.0,29.89,South,169,8.9,17.0,57,0.00,,,0.00,798.0,meteobridge,2013-08-06 20:24:00,
2013-08-06 15:30:00,94.5,76.8,29.89,South,187,13.0,15.0,57,0.00,,,0.00,796.0,meteobridge,2013-08-06 20:30:00,
2013-08-06 15:33:00,94.3,76.1,29.88,SSE,165,14.1,17.0,56,0.00,,,0.00,789.0,meteobridge,2013-08-06 20:33:00,
2013-08-06 15:38:00,94.6,75.9,29.88,South,173,8.1,15.0,55,0.00,,,0.00,777.0,meteobridge,2013-08-06 20:38:00,
2013-08-06 15:43:00,94.3,75.0,29.88,South,173,13.0,16.1,54,0.00,,,0.00,754.0,meteobridge,2013-08-06 20:43:00,
2013-08-06 15:48:00,94.3,75.0,29.88,South,184,11.0,19.0,54,0.00,,,0.00,752.0,meteobridge,2013-08-06 20:48:00,
2013-08-06 15:53:00,93.9,74.7,29.88,SSE,156,8.9,17.9,54,0.00,,,0.00,744.0,meteobridge,2013-08-06 20:53:00,
2013-08-06 15:58:00,94.8,75.0,29.88,SSW,196,8.1,17.0,53,0.00,,,0.00,728.0,meteobridge,2013-08-06 20:58:00,
2013-08-06 16:03:00,94.3,75.0,29.88,South,175,11.0,19.0,54,0.00,,,0.00,722.0,meteobridge,2013-08-06 21:03:00,
2013-08-06 16:08:00,94.3,76.1,29.88,SE,144,11.0,17.0,56,0.00,,,0.00,705.0,meteobridge,2013-08-06 21:08:00,
2013-08-06 16:13:00,94.6,75.4,29.88,South,178,14.1,15.0,54,0.00,,,0.00,691.0,meteobridge,2013-08-06 21:13:00,
2013-08-06 16:18:00,93.9,73.6,29.87,SSW,196,12.1,19.0,52,0.00,,,0.00,677.0,meteobridge,2013-08-06 21:18:00,
2013-08-06 16:23:00,93.6,75.0,29.87,SSE,164,13.0,21.0,55,0.00,,,0.00,661.0,meteobridge,2013-08-06 21:23:00,
2013-08-06 16:28:00,93.6,75.0,29.87,South,184,12.1,17.0,55,0.00,,,0.00,652.0,meteobridge,2013-08-06 21:28:00,
2013-08-06 16:33:00,93.4,74.8,29.87,South,184,11.0,17.9,55,0.00,,,0.00,640.0,meteobridge,2013-08-06 21:33:00,
2013-08-06 16:38:00,93.7,77.7,29.87,South,174,8.9,12.1,60,0.00,,,0.00,624.0,meteobridge,2013-08-06 21:38:00,
2013-08-06 16:44:00,93.7,76.6,29.87,SSE,150,12.1,15.0,58,0.00,,,0.00,610.0,meteobridge,2013-08-06 21:44:00,
2013-08-06 16:49:00,93.9,76.8,29.87,SSE,167,8.9,19.0,58,0.00,,,0.00,592.0,meteobridge,2013-08-06 21:49:00,
2013-08-06 16:54:00,92.8,76.5,29.87,SSE,163,12.1,19.9,59,0.00,,,0.00,578.0,meteobridge,2013-08-06 21:54:00,
2013-08-06 16:59:00,93.2,76.3,29.87,SSE,160,13.0,19.9,58,0.00,,,0.00,564.0,meteobridge,2013-08-06 21:59:00,
2013-08-06 17:04:00,93.0,76.6,29.87,SSE,165,14.1,15.0,59,0.00,,,0.00,541.0,meteobridge,2013-08-06 22:04:00,
2013-08-06 17:09:00,93.0,75.0,29.87,South,181,10.1,14.1,56,0.00,,,0.00,527.0,meteobridge,2013-08-06 22:09:00,
2013-08-06 17:14:00,92.8,75.4,29.87,SW,218,8.1,21.9,57,0.00,,,0.00,506.0,meteobridge,2013-08-06 22:14:00,
2013-08-06 17:19:00,92.5,77.0,29.86,South,173,8.9,16.1,61,0.00,,,0.00,490.0,meteobridge,2013-08-06 22:19:00,
2013-08-06 17:24:00,92.1,77.2,29.86,South,189,17.0,17.0,62,0.00,,,0.00,478.0,meteobridge,2013-08-06 22:24:00,
2013-08-06 17:29:00,92.1,76.6,29.86,SSE,154,12.1,17.0,61,0.00,,,0.00,464.0,meteobridge,2013-08-06 22:29:00,
2013-08-06 17:34:00,91.6,77.2,29.86,SSE,155,8.9,16.1,63,0.00,,,0.00,448.0,meteobridge,2013-08-06 22:34:00,
2013-08-06 17:39:00,91.8,77.9,29.86,SSE,153,11.0,15.0,64,0.00,,,0.00,427.0,meteobridge,2013-08-06 22:39:00,
2013-08-06 17:44:00,91.4,77.5,29.86,SSE,152,10.1,15.0,64,0.00,,,0.00,411.0,meteobridge,2013-08-06 22:44:00,
2013-08-06 17:49:00,91.2,77.4,29.86,SSE,157,12.1,16.1,64,0.00,,,0.00,390.0,meteobridge,2013-08-06 22:49:00,
2013-08-06 17:54:00,90.9,77.0,29.86,South,178,12.1,17.0,64,0.00,,,0.00,373.0,meteobridge,2013-08-06 22:54:00,
2013-08-06 17:59:00,90.7,76.8,29.86,SSE,148,16.1,17.0,64,0.00,,,0.00,359.0,meteobridge,2013-08-06 22:59:00,
2013-08-06 18:04:00,90.3,76.5,29.85,South,171,11.0,16.1,64,0.00,,,0.00,341.0,meteobridge,2013-08-06 23:04:00,
2013-08-06 18:09:00,90.3,76.5,29.85,SSE,154,19.0,19.9,64,0.00,,,0.00,323.0,meteobridge,2013-08-06 23:09:00,
2013-08-06 18:14:00,90.0,77.0,29.85,SSE,165,11.0,17.0,66,0.00,,,0.00,306.0,meteobridge,2013-08-06 23:14:00,
2013-08-06 18:19:00,89.8,76.8,29.85,South,183,12.1,19.0,66,0.00,,,0.00,285.0,meteobridge,2013-08-06 23:19:00,
2013-08-06 18:24:00,89.2,76.8,29.85,SSE,157,10.1,15.0,67,0.00,,,0.00,269.0,meteobridge,2013-08-06 23:24:00,
2013-08-06 18:29:00,89.1,76.6,29.85,SSE,151,8.9,15.0,67,0.00,,,0.00,246.0,meteobridge,2013-08-06 23:29:00,
2013-08-06 18:34:00,89.1,76.6,29.85,South,173,11.0,19.0,67,0.00,,,0.00,229.0,meteobridge,2013-08-06 23:34:00,
2013-08-06 18:40:00,88.7,76.3,29.85,SSE,159,11.0,17.0,67,0.00,,,0.00,211.0,meteobridge,2013-08-06 23:40:00,
2013-08-06 18:45:00,88.5,77.0,29.85,SSE,164,14.1,14.1,69,0.00,,,0.00,190.0,meteobridge,2013-08-06 23:45:00,
2013-08-06 18:50:00,88.3,75.9,29.84,SSE,159,16.1,17.0,67,0.00,,,0.00,176.0,meteobridge,2013-08-06 23:50:00,
2013-08-06 18:55:00,88.2,76.6,29.84,SSE,159,13.0,17.0,69,0.00,,,0.00,155.0,meteobridge,2013-08-06 23:55:00,
2013-08-06 19:00:00,87.8,76.3,29.84,SSE,157,8.9,14.1,69,0.00,,,0.00,135.0,meteobridge,2013-08-07 00:00:00,
2013-08-06 19:05:00,87.6,76.6,29.84,SSE,168,10.1,14.1,70,0.00,,,0.00,127.0,meteobridge,2013-08-07 00:05:00,
2013-08-06 19:10:00,87.4,76.8,29.84,SSE,161,10.1,16.1,71,0.00,,,0.00,113.0,meteobridge,2013-08-07 00:10:00,
2013-08-06 19:15:00,87.1,76.5,29.84,SSW,195,13.0,16.1,71,0.00,,,0.00,98.0,meteobridge,2013-08-07 00:15:00,
2013-08-06 19:20:00,86.5,76.5,29.83,SSE,159,11.0,19.0,72,0.00,,,0.00,83.0,meteobridge,2013-08-07 00:20:00,
2013-08-06 19:25:00,86.4,76.6,29.83,South,178,8.9,14.1,73,0.00,,,0.00,70.0,meteobridge,2013-08-07 00:25:00,
2013-08-06 19:30:00,86.2,77.0,29.84,South,173,8.1,14.1,74,0.00,,,0.00,60.0,meteobridge,2013-08-07 00:30:00,
2013-08-06 19:35:00,85.8,77.0,29.84,SSE,155,12.1,14.1,75,0.00,,,0.00,51.0,meteobridge,2013-08-07 00:35:00,
2013-08-06 19:40:00,85.6,76.8,29.84,SE,138,14.1,16.1,75,0.00,,,0.00,42.0,meteobridge,2013-08-07 00:40:00,
2013-08-06 19:45:00,85.5,77.0,29.83,South,169,15.0,15.0,76,0.00,,,0.00,33.0,meteobridge,2013-08-07 00:45:00,
2013-08-06 19:50:00,85.3,76.8,29.83,South,173,12.1,14.1,76,0.00,,,0.00,26.0,meteobridge,2013-08-07 00:50:00,
2013-08-06 19:55:00,84.9,76.8,29.83,South,176,8.1,14.1,77,0.00,,,0.00,21.0,meteobridge,2013-08-07 00:55:00,
2013-08-06 20:00:00,84.6,76.5,29.83,SSE,161,12.1,13.0,77,0.00,,,0.00,14.0,meteobridge,2013-08-07 01:00:00,
2013-08-06 20:05:00,84.4,76.8,29.83,SSE,155,8.9,17.0,78,0.00,,,0.00,11.0,meteobridge,2013-08-07 01:05:00,
2013-08-06 20:10:00,84.0,76.8,29.83,SSE,154,8.9,15.0,79,0.00,,,0.00,5.0,meteobridge,2013-08-07 01:10:00,
2013-08-06 20:15:00,84.0,77.2,29.83,SSE,159,10.1,15.0,80,0.00,,,0.00,0.0,meteobridge,2013-08-07 01:15:00,
2013-08-06 20:20:00,83.8,77.0,29.83,SSE,153,10.1,12.1,80,0.00,,,0.00,0.0,meteobridge,2013-08-07 01:20:00,
2013-08-06 20:25:00,83.5,77.0,29.83,SSE,168,12.1,17.0,81,0.00,,,0.00,0.0,meteobridge,2013-08-07 01:25:00,
2013-08-06 20:30:00,83.1,77.0,29.83,South,171,6.9,8.9,82,0.00,,,0.00,0.0,meteobridge,2013-08-07 01:30:00,
2013-08-06 20:35:00,83.1,77.4,29.83,South,171,8.9,12.1,83,0.00,,,0.00,0.0,meteobridge,2013-08-07 01:35:00,
2013-08-06 20:40:00,82.9,77.2,29.83,SSE,160,10.1,14.1,83,0.00,,,0.00,0.0,meteobridge,2013-08-07 01:40:00,
2013-08-06 20:45:00,82.9,77.5,29.83,SSE,160,10.1,14.1,84,0.00,,,0.00,0.0,meteobridge,2013-08-07 01:45:00,
2013-08-06 20:50:00,82.9,77.5,29.83,SSE,148,8.9,11.0,84,0.00,,,0.00,0.0,meteobridge,2013-08-07 01:50:00,
2013-08-06 20:55:00,82.9,77.9,29.83,South,176,10.1,14.1,85,0.00,,,0.00,0.0,meteobridge,2013-08-07 01:55:00,
2013-08-06 21:01:00,82.8,77.7,29.83,South,178,11.0,15.0,85,0.00,,,0.00,0.0,meteobridge,2013-08-07 02:01:00,
2013-08-06 21:05:00,82.8,77.7,29.83,SSE,167,12.1,14.1,85,0.00,,,0.00,0.0,meteobridge,2013-08-07 02:05:00,
2013-08-06 21:10:00,82.6,77.5,29.83,SSE,152,8.1,11.0,85,0.00,,,0.00,0.0,meteobridge,2013-08-07 02:10:00,
2013-08-06 21:16:00,82.6,77.9,29.84,South,186,8.9,12.1,86,0.00,,,0.00,0.0,meteobridge,2013-08-07 02:16:00,
2013-08-06 21:21:00,82.4,77.7,29.84,SSE,163,4.9,13.0,86,0.00,,,0.00,0.0,meteobridge,2013-08-07 02:21:00,
2013-08-06 21:26:00,82.2,77.5,29.84,SSE,165,6.0,11.0,86,0.00,,,0.00,0.0,meteobridge,2013-08-07 02:26:00,
2013-08-06 21:31:00,82.2,77.5,29.85,SSE,166,8.1,10.1,86,0.00,,,0.00,0.0,meteobridge,2013-08-07 02:31:00,
2013-08-06 21:36:00,82.0,77.7,29.85,SSE,167,6.9,12.1,87,0.00,,,0.00,0.0,meteobridge,2013-08-07 02:36:00,
2013-08-06 21:41:00,82.0,77.7,29.85,SE,132,8.1,10.1,87,0.00,,,0.00,0.0,meteobridge,2013-08-07 02:41:00,
2013-08-06 21:46:00,81.9,77.5,29.85,SSE,157,8.1,8.9,87,0.00,,,0.00,0.0,meteobridge,2013-08-07 02:46:00,
2013-08-06 21:51:00,81.9,77.5,29.85,SSE,153,6.9,11.0,87,0.00,,,0.00,0.0,meteobridge,2013-08-07 02:51:00,
2013-08-06 21:56:00,81.7,77.4,29.85,South,176,10.1,10.1,87,0.00,,,0.00,0.0,meteobridge,2013-08-07 02:56:00,
2013-08-06 22:01:00,81.7,77.4,29.85,SSE,165,6.9,10.1,87,0.00,,,0.00,0.0,meteobridge,2013-08-07 03:01:00,
2013-08-06 22:06:00,81.7,77.4,29.85,SSE,161,4.9,10.1,87,0.00,,,0.00,0.0,meteobridge,2013-08-07 03:06:00,
2013-08-06 22:11:00,81.5,77.2,29.85,SSE,158,6.0,8.1,87,0.00,,,0.00,0.0,meteobridge,2013-08-07 03:11:00,
2013-08-06 22:16:00,81.3,77.4,29.86,South,184,6.9,8.9,88,0.00,,,0.00,0.0,meteobridge,2013-08-07 03:16:00,
2013-08-06 22:21:00,81.3,77.4,29.86,SSE,163,6.9,8.9,88,0.00,,,0.00,0.0,meteobridge,2013-08-07 03:21:00,
2013-08-06 22:26:00,81.3,77.4,29.86,SSE,156,6.9,10.1,88,0.00,,,0.00,0.0,meteobridge,2013-08-07 03:26:00,
2013-08-06 22:31:00,81.3,77.4,29.86,South,171,6.9,8.9,88,0.00,,,0.00,0.0,meteobridge,2013-08-07 03:31:00,
2013-08-06 22:36:00,81.1,77.2,29.86,SSE,156,8.1,8.9,88,0.00,,,0.00,0.0,meteobridge,2013-08-07 03:36:00,
2013-08-06 22:41:00,81.1,77.2,29.86,South,172,6.0,10.1,88,0.00,,,0.00,0.0,meteobridge,2013-08-07 03:41:00,
2013-08-06 22:46:00,81.1,77.2,29.87,South,175,10.1,10.1,88,0.00,,,0.00,0.0,meteobridge,2013-08-07 03:46:00,
2013-08-06 22:51:00,81.1,77.2,29.87,SSE,157,2.9,10.1,88,0.00,,,0.00,0.0,meteobridge,2013-08-07 03:51:00,
2013-08-06 22:56:00,81.1,77.5,29.87,SSE,168,4.9,11.0,89,0.00,,,0.00,0.0,meteobridge,2013-08-07 03:56:00,
2013-08-06 23:01:00,81.1,77.5,29.88,SSE,161,6.0,10.1,89,0.00,,,0.00,0.0,meteobridge,2013-08-07 04:01:00,
2013-08-06 23:02:00,81.1,77.5,29.88,South,173,6.9,8.1,89,0.00,,,0.00,0.0,meteobridge,2013-08-07 04:02:00,
2013-08-06 23:07:00,81.1,77.5,29.88,SSE,168,2.9,8.1,89,0.00,,,0.00,0.0,meteobridge,2013-08-07 04:07:00,
2013-08-06 23:12:00,81.0,77.4,29.88,South,184,6.0,8.1,89,0.00,,,0.00,0.0,meteobridge,2013-08-07 04:12:00,
2013-08-06 23:17:00,81.0,77.4,29.88,South,170,6.0,8.9,89,0.00,,,0.00,0.0,meteobridge,2013-08-07 04:17:00,
2013-08-06 23:22:00,81.0,77.4,29.88,South,170,2.9,6.9,89,0.00,,,0.00,0.0,meteobridge,2013-08-07 04:22:00,
2013-08-06 23:27:00,80.8,77.2,29.88,SSE,168,4.9,6.9,89,0.00,,,0.00,0.0,meteobridge,2013-08-07 04:27:00,
2013-08-06 23:32:00,80.8,77.2,29.88,SSE,163,6.9,6.9,89,0.00,,,0.00,0.0,meteobridge,2013-08-07 04:32:00,
2013-08-06 23:37:00,80.6,77.0,29.88,South,190,6.0,6.0,89,0.00,,,0.00,0.0,meteobridge,2013-08-07 04:37:00,
2013-08-06 23:42:00,80.4,76.8,29.88,South,177,4.0,4.0,89,0.00,,,0.00,0.0,meteobridge,2013-08-07 04:42:00,
2013-08-06 23:47:00,80.4,77.2,29.88,South,173,2.9,4.9,90,0.00,,,0.00,0.0,meteobridge,2013-08-07 04:47:00,
2013-08-06 23:52:00,80.2,77.0,29.88,SSE,168,4.9,4.9,90,0.00,,,0.00,0.0,meteobridge,2013-08-07 04:52:00,
2013-08-06 23:57:00,80.2,77.0,29.88,South,174,2.9,4.0,90,0.00,,,0.00,0.0,meteobridge,2013-08-07 04:57:00,